Time,TemperatureF,DewpointF,PressureIn,WindDirection,WindDirectionDegrees,WindSpeedMPH,WindSpeedGustMPH,Humidity,HourlyPrecipIn,Conditions,Clouds,dailyrainin,SoftwareType,DateUTC
2013-11-30 00:00:00,55.4,53.1,30.36,NNW,342,6.0,8.0,92,0.00,,,0.00,Wunderground v.1.15,2013-11-30 05:00:00,
2013-11-30 00:05:00,55.5,52.6,30.36,NNE,14,6.0,8.0,90,0.00,,,0.00,Wunderground v.1.15,2013-11-30 05:05:00,
2013-11-30 00:10:00,55.6,52.7,30.36,NNW,348,6.0,6.0,90,0.00,,,0.00,Wunderground v.1.15,2013-11-30 05:10:00,
2013-11-30 00:20:00,55.6,52.7,30.36,North,10,5.0,7.0,90,0.00,,,0.00,Wunderground v.1.15,2013-11-30 05:20:00,
2013-11-30 00:30:00,55.5,52.6,30.35,NNW,345,4.0,4.0,90,0.00,,,0.00,Wunderground v.1.15,2013-11-30 05:30:00,
2013-11-30 00:35:00,55.4,52.5,30.35,North,3,3.0,6.0,90,0.00,,,0.00,Wunderground v.1.15,2013-11-30 05:35:00,
2013-11-30 00:40:00,55.4,52.8,30.35,North,353,2.0,7.0,91,0.00,,,0.00,Wunderground v.1.15,2013-11-30 05:40:00,
2013-11-30 00:45:00,55.4,52.8,30.35,North,9,3.0,7.0,91,0.00,,,0.00,Wunderground v.1.15,2013-11-30 05:45:00,
2013-11-30 00:55:00,55.4,52.8,30.34,North,349,4.0,7.0,91,0.00,,,0.00,Wunderground v.1.15,2013-11-30 05:55:00,
2013-11-30 01:05:00,55.6,53.0,30.35,NNE,21,4.0,7.0,91,0.00,,,0.00,Wunderground v.1.15,2013-11-30 06:05:00,
2013-11-30 01:20:00,56.1,53.5,30.34,NNE,22,3.0,7.0,91,0.00,,,0.00,Wunderground v.1.15,2013-11-30 06:20:00,
2013-11-30 01:25:00,56.1,53.5,30.35,North,353,3.0,7.0,91,0.00,,,0.00,Wunderground v.1.15,2013-11-30 06:25:00,
2013-11-30 01:35:00,56.3,53.7,30.35,North,358,2.0,7.0,91,0.00,,,0.00,Wunderground v.1.15,2013-11-30 06:35:00,
2013-11-30 01:40:00,56.3,53.7,30.34,North,10,2.0,7.0,91,0.00,,,0.00,Wunderground v.1.15,2013-11-30 06:40:00,
2013-11-30 01:45:00,56.4,53.8,30.34,North,353,2.0,7.0,91,0.00,,,0.00,Wunderground v.1.15,2013-11-30 06:45:00,
2013-11-30 01:55:00,56.4,53.8,30.33,North,7,3.0,7.0,91,0.00,,,0.00,Wunderground v.1.15,2013-11-30 06:55:00,
2013-11-30 02:05:00,56.3,53.7,30.34,North,353,4.0,7.0,91,0.00,,,0.00,Wunderground v.1.15,2013-11-30 07:05:00,
2013-11-30 02:15:00,56.1,53.5,30.34,North,358,5.0,7.0,91,0.00,,,0.00,Wunderground v.1.15,2013-11-30 07:15:00,
2013-11-30 02:25:00,56.0,53.4,30.33,NNE,26,3.0,7.0,91,0.00,,,0.00,Wunderground v.1.15,2013-11-30 07:25:00,
2013-11-30 02:30:00,55.9,53.3,30.33,NNE,22,3.0,3.0,91,0.00,,,0.00,Wunderground v.1.15,2013-11-30 07:30:00,
2013-11-30 02:40:00,55.8,53.2,30.32,North,353,3.0,3.0,91,0.00,,,0.00,Wunderground v.1.15,2013-11-30 07:40:00,
2013-11-30 02:45:00,55.6,53.3,30.32,NNE,20,2.0,4.0,92,0.00,,,0.00,Wunderground v.1.15,2013-11-30 07:45:00,
2013-11-30 02:55:00,55.4,53.1,30.32,North,7,4.0,4.0,92,0.00,,,0.00,Wunderground v.1.15,2013-11-30 07:55:00,
2013-11-30 03:00:00,55.5,53.2,30.32,North,7,3.0,7.0,92,0.00,,,0.00,Wunderground v.1.15,2013-11-30 08:00:00,
2013-11-30 03:10:00,55.6,53.3,30.32,NNW,334,2.0,7.0,92,0.00,,,0.00,Wunderground v.1.15,2013-11-30 08:10:00,
2013-11-30 03:20:00,55.6,53.3,30.32,North,358,3.0,7.0,92,0.00,,,0.00,Wunderground v.1.15,2013-11-30 08:20:00,
2013-11-30 03:30:00,55.8,53.5,30.32,North,358,4.0,7.0,92,0.00,,,0.00,Wunderground v.1.15,2013-11-30 08:30:00,
2013-11-30 03:35:00,55.9,53.6,30.32,North,8,3.0,7.0,92,0.00,,,0.00,Wunderground v.1.15,2013-11-30 08:35:00,
2013-11-30 03:45:00,55.9,53.6,30.32,NNE,16,3.0,4.0,92,0.00,,,0.00,Wunderground v.1.15,2013-11-30 08:45:00,
2013-11-30 03:50:00,56.0,53.4,30.32,NNE,14,4.0,7.0,91,0.00,,,0.00,Wunderground v.1.15,2013-11-30 08:50:00,
2013-11-30 04:00:00,56.1,53.8,30.32,North,10,3.0,3.0,92,0.00,,,0.00,Wunderground v.1.15,2013-11-30 09:00:00,
2013-11-30 04:05:00,56.2,53.9,30.32,North,11,3.0,6.0,92,0.00,,,0.00,Wunderground v.1.15,2013-11-30 09:05:00,
2013-11-30 04:15:00,56.3,54.0,30.32,North,358,2.0,7.0,92,0.00,,,0.00,Wunderground v.1.15,2013-11-30 09:15:00,
2013-11-30 04:20:00,56.4,54.1,30.32,North,358,2.0,2.0,92,0.00,,,0.00,Wunderground v.1.15,2013-11-30 09:20:00,
2013-11-30 04:30:00,56.6,54.3,30.32,North,358,2.0,2.0,92,0.00,,,0.00,Wunderground v.1.15,2013-11-30 09:30:00,
2013-11-30 04:35:00,56.7,54.1,30.32,North,353,2.0,7.0,91,0.00,,,0.00,Wunderground v.1.15,2013-11-30 09:35:00,
2013-11-30 04:45:00,56.9,54.6,30.32,North,358,3.0,7.0,92,0.00,,,0.00,Wunderground v.1.15,2013-11-30 09:45:00,
2013-11-30 04:50:00,57.0,54.7,30.32,North,358,3.0,7.0,92,0.00,,,0.00,Wunderground v.1.15,2013-11-30 09:50:00,
2013-11-30 05:00:00,57.2,54.9,30.32,North,3,3.0,7.0,92,0.00,,,0.00,Wunderground v.1.15,2013-11-30 10:00:00,
2013-11-30 05:10:00,57.4,54.8,30.32,North,3,3.0,7.0,91,0.00,,,0.00,Wunderground v.1.15,2013-11-30 10:10:00,
2013-11-30 05:20:00,57.7,55.4,30.32,North,3,3.0,3.0,92,0.00,,,0.00,Wunderground v.1.15,2013-11-30 10:20:00,
2013-11-30 05:25:00,57.8,55.5,30.32,North,8,2.0,7.0,92,0.00,,,0.00,Wunderground v.1.15,2013-11-30 10:25:00,
2013-11-30 05:35:00,57.9,55.6,30.32,NNW,346,2.0,7.0,92,0.00,,,0.00,Wunderground v.1.15,2013-11-30 10:35:00,
2013-11-30 05:40:00,57.9,55.6,30.32,North,353,2.0,7.0,92,0.00,,,0.00,Wunderground v.1.15,2013-11-30 10:40:00,
2013-11-30 05:50:00,58.0,55.7,30.32,North,353,3.0,3.0,92,0.00,,,0.00,Wunderground v.1.15,2013-11-30 10:50:00,
2013-11-30 05:55:00,58.0,55.7,30.32,NNW,345,2.0,7.0,92,0.00,,,0.00,Wunderground v.1.15,2013-11-30 10:55:00,
2013-11-30 06:05:00,58.1,55.8,30.32,North,3,1.0,7.0,92,0.00,,,0.00,Wunderground v.1.15,2013-11-30 11:05:00,
2013-11-30 06:10:00,58.1,55.8,30.33,NNW,342,2.0,7.0,92,0.00,,,0.00,Wunderground v.1.15,2013-11-30 11:10:00,
2013-11-30 06:20:00,58.2,55.9,30.32,North,358,2.0,2.0,92,0.00,,,0.00,Wunderground v.1.15,2013-11-30 11:20:00,
2013-11-30 06:30:00,58.4,56.1,30.33,North,11,2.0,2.0,92,0.00,,,0.00,Wunderground v.1.15,2013-11-30 11:30:00,
2013-11-30 06:40:00,58.6,56.3,30.33,North,3,2.0,2.0,92,0.00,,,0.00,Wunderground v.1.15,2013-11-30 11:40:00,
2013-11-30 06:45:00,58.7,56.4,30.33,North,358,3.0,3.0,92,0.00,,,0.00,Wunderground v.1.15,2013-11-30 11:45:00,
2013-11-30 06:55:00,58.9,56.6,30.33,NNW,332,4.0,7.0,92,0.00,,,0.00,Wunderground v.1.15,2013-11-30 11:55:00,
2013-11-30 07:05:00,59.1,56.8,30.34,NNW,343,4.0,4.0,92,0.00,,,0.00,Wunderground v.1.15,2013-11-30 12:05:00,
2013-11-30 07:10:00,59.2,56.9,30.34,North,11,3.0,7.0,92,0.00,,,0.00,Wunderground v.1.15,2013-11-30 12:10:00,
2013-11-30 07:20:00,59.4,57.1,30.34,North,9,5.0,5.0,92,0.00,,,0.00,Wunderground v.1.15,2013-11-30 12:20:00,
2013-11-30 07:25:00,59.4,57.1,30.34,NNW,345,4.0,5.0,92,0.00,,,0.00,Wunderground v.1.15,2013-11-30 12:25:00,
2013-11-30 07:35:00,59.6,57.3,30.35,North,10,3.0,4.0,92,0.00,,,0.00,Wunderground v.1.15,2013-11-30 12:35:00,
2013-11-30 07:45:00,59.8,57.5,30.35,North,7,1.0,4.0,92,0.00,,,0.00,Wunderground v.1.15,2013-11-30 12:45:00,
2013-11-30 07:55:00,60.0,57.7,30.35,North,353,2.0,5.0,92,0.00,,,0.00,Wunderground v.1.15,2013-11-30 12:55:00,
2013-11-30 08:05:00,60.2,57.9,30.35,NNE,17,2.0,11.0,92,0.00,,,0.00,Wunderground v.1.15,2013-11-30 13:05:00,
2013-11-30 08:15:00,60.3,58.0,30.35,NNE,20,1.0,11.0,92,0.00,,,0.00,Wunderground v.1.15,2013-11-30 13:15:00,
2013-11-30 08:25:00,60.5,58.2,30.35,North,358,0.0,11.0,92,0.00,,,0.00,Wunderground v.1.15,2013-11-30 13:25:00,
2013-11-30 08:30:00,60.7,58.4,30.34,North,358,1.0,11.0,92,0.00,,,0.00,Wunderground v.1.15,2013-11-30 13:30:00,
2013-11-30 08:40:00,60.9,58.6,30.34,North,358,2.0,11.0,92,0.00,,,0.00,Wunderground v.1.15,2013-11-30 13:40:00,
2013-11-30 08:45:00,61.1,58.8,30.34,North,10,2.0,11.0,92,0.00,,,0.00,Wunderground v.1.15,2013-11-30 13:45:00,
2013-11-30 08:55:00,61.7,59.4,30.34,NNW,338,3.0,11.0,92,0.00,,,0.00,Wunderground v.1.15,2013-11-30 13:55:00,
2013-11-30 09:00:00,61.8,59.1,30.34,North,11,4.0,11.0,91,0.00,,,0.00,Wunderground v.1.15,2013-11-30 14:00:00,
2013-11-30 09:10:00,62.2,59.8,30.35,North,9,4.0,11.0,92,0.00,,,0.00,Wunderground v.1.15,2013-11-30 14:10:00,
2013-11-30 09:20:00,62.7,60.0,30.35,North,9,5.0,5.0,91,0.00,,,0.00,Wunderground v.1.15,2013-11-30 14:20:00,
2013-11-30 09:30:00,63.3,60.6,30.35,NNW,340,5.0,5.0,91,0.00,,,0.00,Wunderground v.1.15,2013-11-30 14:30:00,
2013-11-30 09:40:00,64.3,61.6,30.34,NNW,343,3.0,11.0,91,0.00,,,0.00,Wunderground v.1.15,2013-11-30 14:40:00,
2013-11-30 09:50:00,65.0,62.0,30.34,North,353,4.0,11.0,90,0.00,,,0.00,Wunderground v.1.15,2013-11-30 14:50:00,
2013-11-30 10:00:00,66.6,62.9,30.34,NNE,17,5.0,11.0,88,0.00,,,0.00,Wunderground v.1.15,2013-11-30 15:00:00,
2013-11-30 10:05:00,67.1,63.1,30.34,NNW,348,5.0,11.0,87,0.00,,,0.00,Wunderground v.1.15,2013-11-30 15:05:00,
2013-11-30 10:15:00,67.5,63.2,30.33,North,7,5.0,11.0,86,0.00,,,0.00,Wunderground v.1.15,2013-11-30 15:15:00,
2013-11-30 10:20:00,67.5,62.8,30.34,North,3,5.0,5.0,85,0.00,,,0.00,Wunderground v.1.15,2013-11-30 15:20:00,
2013-11-30 10:30:00,68.1,63.1,30.33,North,353,4.0,11.0,84,0.00,,,0.00,Wunderground v.1.15,2013-11-30 15:30:00,
2013-11-30 10:35:00,69.1,63.7,30.33,NNE,26,4.0,11.0,83,0.00,,,0.00,Wunderground v.1.15,2013-11-30 15:35:00,
2013-11-30 10:45:00,70.5,64.4,30.33,NNE,13,5.0,11.0,81,0.00,,,0.00,Wunderground v.1.15,2013-11-30 15:45:00,
2013-11-30 10:55:00,71.2,64.0,30.33,North,9,6.0,11.0,78,0.00,,,0.00,Wunderground v.1.15,2013-11-30 15:55:00,
2013-11-30 11:05:00,71.9,64.3,30.33,North,9,5.0,11.0,77,0.00,,,0.00,Wunderground v.1.15,2013-11-30 16:05:00,
2013-11-30 11:25:00,72.9,64.5,30.32,North,353,5.0,11.0,75,0.00,,,0.00,Wunderground v.1.15,2013-11-30 16:25:00,
2013-11-30 11:35:00,72.8,64.8,30.32,North,353,4.0,11.0,76,0.00,,,0.00,Wunderground v.1.15,2013-11-30 16:35:00,
2013-11-30 11:45:00,73.1,64.3,30.31,ENE,67,4.0,11.0,74,0.00,,,0.00,Wunderground v.1.15,2013-11-30 16:45:00,
2013-11-30 11:55:00,73.4,64.6,30.31,NE,44,5.0,11.0,74,0.00,,,0.00,Wunderground v.1.15,2013-11-30 16:55:00,
2013-11-30 12:00:00,72.8,64.4,30.30,North,358,4.0,11.0,75,0.00,,,0.00,Wunderground v.1.15,2013-11-30 17:00:00,
2013-11-30 12:10:00,72.5,63.7,30.30,NNE,32,3.0,11.0,74,0.00,,,0.00,Wunderground v.1.15,2013-11-30 17:10:00,
2013-11-30 12:15:00,73.1,64.3,30.30,NNE,27,4.0,11.0,74,0.00,,,0.00,Wunderground v.1.15,2013-11-30 17:15:00,
2013-11-30 12:25:00,74.9,64.9,30.29,NNW,335,4.0,11.0,71,0.00,,,0.00,Wunderground v.1.15,2013-11-30 17:25:00,
2013-11-30 12:30:00,73.8,63.4,30.29,North,358,5.0,5.0,70,0.00,,,0.00,Wunderground v.1.15,2013-11-30 17:30:00,
2013-11-30 12:40:00,74.0,64.0,30.28,ENE,74,5.0,11.0,71,0.00,,,0.00,Wunderground v.1.15,2013-11-30 17:40:00,
2013-11-30 12:45:00,74.7,63.9,30.28,NNE,33,3.0,11.0,69,0.00,,,0.00,Wunderground v.1.15,2013-11-30 17:45:00,
2013-11-30 12:55:00,73.3,62.1,30.28,NNW,342,6.0,11.0,68,0.00,,,0.00,Wunderground v.1.15,2013-11-30 17:55:00,
2013-11-30 13:00:00,73.4,62.2,30.28,North,358,6.0,6.0,68,0.00,,,0.00,Wunderground v.1.15,2013-11-30 18:00:00,
2013-11-30 13:10:00,72.4,61.7,30.28,North,358,4.0,4.0,69,0.00,,,0.00,Wunderground v.1.15,2013-11-30 18:10:00,
2013-11-30 13:15:00,72.7,62.3,30.28,NNW,345,3.0,11.0,70,0.00,,,0.00,Wunderground v.1.15,2013-11-30 18:15:00,
2013-11-30 13:25:00,73.4,62.2,30.27,NNE,19,7.0,11.0,68,0.00,,,0.00,Wunderground v.1.15,2013-11-30 18:25:00,
2013-11-30 13:35:00,73.5,61.9,30.27,NNE,15,4.0,11.0,67,0.00,,,0.00,Wunderground v.1.15,2013-11-30 18:35:00,
2013-11-30 13:45:00,74.0,61.5,30.26,NNW,336,5.0,7.0,65,0.00,,,0.00,Wunderground v.1.15,2013-11-30 18:45:00,
2013-11-30 13:50:00,75.1,62.5,30.26,NE,55,4.0,4.0,65,0.00,,,0.00,Wunderground v.1.15,2013-11-30 18:50:00,
2013-11-30 14:00:00,76.6,62.6,30.26,North,358,3.0,11.0,62,0.00,,,0.00,Wunderground v.1.15,2013-11-30 19:00:00,
2013-11-30 14:05:00,76.4,61.5,30.26,NE,39,4.0,11.0,60,0.00,,,0.00,Wunderground v.1.15,2013-11-30 19:05:00,
2013-11-30 14:15:00,75.5,62.0,30.25,North,9,4.0,4.0,63,0.00,,,0.00,Wunderground v.1.15,2013-11-30 19:15:00,
2013-11-30 14:25:00,74.0,60.6,30.26,NNE,25,4.0,4.0,63,0.00,,,0.00,Wunderground v.1.15,2013-11-30 19:25:00,
2013-11-30 14:35:00,73.2,60.7,30.26,East,84,2.0,6.0,65,0.00,,,0.00,Wunderground v.1.15,2013-11-30 19:35:00,
2013-11-30 14:45:00,73.7,61.6,30.25,NNE,26,2.0,4.0,66,0.00,,,0.00,Wunderground v.1.15,2013-11-30 19:45:00,
2013-11-30 14:55:00,75.7,61.3,30.25,North,3,5.0,10.0,61,0.00,,,0.00,Wunderground v.1.15,2013-11-30 19:55:00,
2013-11-30 15:05:00,74.2,60.8,30.25,NNE,18,6.0,13.0,63,0.00,,,0.00,Wunderground v.1.15,2013-11-30 20:05:00,
2013-11-30 15:10:00,73.9,61.4,30.25,North,3,5.0,13.0,65,0.00,,,0.00,Wunderground v.1.15,2013-11-30 20:10:00,
2013-11-30 15:20:00,75.4,62.8,30.24,NE,38,3.0,3.0,65,0.00,,,0.00,Wunderground v.1.15,2013-11-30 20:20:00,
2013-11-30 15:25:00,73.8,61.7,30.24,NE,34,4.0,4.0,66,0.00,,,0.00,Wunderground v.1.15,2013-11-30 20:25:00,
2013-11-30 15:35:00,71.5,62.0,30.25,NNE,15,3.0,13.0,72,0.00,,,0.00,Wunderground v.1.15,2013-11-30 20:35:00,
2013-11-30 15:40:00,71.3,62.6,30.25,NNE,24,3.0,13.0,74,0.00,,,0.00,Wunderground v.1.15,2013-11-30 20:40:00,
2013-11-30 15:50:00,72.9,63.3,30.24,NNW,339,4.0,13.0,72,0.00,,,0.00,Wunderground v.1.15,2013-11-30 20:50:00,
2013-11-30 16:00:00,72.6,63.4,30.25,NNE,24,4.0,4.0,73,0.00,,,0.00,Wunderground v.1.15,2013-11-30 21:00:00,
2013-11-30 16:10:00,71.9,63.5,30.25,North,3,4.0,4.0,75,0.00,,,0.00,Wunderground v.1.15,2013-11-30 21:10:00,
2013-11-30 16:20:00,70.5,62.6,30.25,NNE,19,6.0,13.0,76,0.00,,,0.00,Wunderground v.1.15,2013-11-30 21:20:00,
2013-11-30 16:30:00,69.2,62.0,30.25,NNW,340,7.0,7.0,78,0.00,,,0.00,Wunderground v.1.15,2013-11-30 21:30:00,
2013-11-30 16:40:00,68.2,61.8,30.25,North,7,6.0,6.0,80,0.00,,,0.00,Wunderground v.1.15,2013-11-30 21:40:00,
2013-11-30 16:50:00,67.1,61.1,30.25,North,3,4.0,13.0,81,0.00,,,0.00,Wunderground v.1.15,2013-11-30 21:50:00,
2013-11-30 16:55:00,66.6,60.9,30.26,North,353,5.0,13.0,82,0.00,,,0.00,Wunderground v.1.15,2013-11-30 21:55:00,
2013-11-30 17:05:00,65.9,60.9,30.26,NNE,17,5.0,13.0,84,0.00,,,0.00,Wunderground v.1.15,2013-11-30 22:05:00,
2013-11-30 17:10:00,65.7,60.7,30.26,North,353,5.0,15.0,84,0.00,,,0.00,Wunderground v.1.15,2013-11-30 22:10:00,
2013-11-30 17:20:00,65.2,60.6,30.26,NNE,20,6.0,13.0,85,0.00,,,0.00,Wunderground v.1.15,2013-11-30 22:20:00,
2013-11-30 17:25:00,65.0,60.4,30.26,NE,38,5.0,13.0,85,0.00,,,0.00,Wunderground v.1.15,2013-11-30 22:25:00,
2013-11-30 17:35:00,64.7,60.4,30.26,North,11,6.0,13.0,86,0.00,,,0.00,Wunderground v.1.15,2013-11-30 22:35:00,
2013-11-30 17:40:00,64.6,60.3,30.27,NNE,26,6.0,6.0,86,0.00,,,0.00,Wunderground v.1.15,2013-11-30 22:40:00,
2013-11-30 17:50:00,64.3,60.3,30.27,NNE,29,5.0,5.0,87,0.00,,,0.00,Wunderground v.1.15,2013-11-30 22:50:00,
2013-11-30 17:55:00,64.1,60.2,30.27,NNW,348,5.0,9.0,87,0.00,,,0.00,Wunderground v.1.15,2013-11-30 22:55:00,
2013-11-30 18:05:00,63.9,60.3,30.27,North,11,6.0,7.0,88,0.00,,,0.00,Wunderground v.1.15,2013-11-30 23:05:00,
2013-11-30 18:10:00,63.8,60.2,30.27,North,349,6.0,6.0,88,0.00,,,0.00,Wunderground v.1.15,2013-11-30 23:10:00,
2013-11-30 18:20:00,63.6,60.0,30.27,North,3,5.0,5.0,88,0.00,,,0.00,Wunderground v.1.15,2013-11-30 23:20:00,
2013-11-30 18:30:00,63.4,60.1,30.27,North,353,4.0,13.0,89,0.00,,,0.00,Wunderground v.1.15,2013-11-30 23:30:00,
2013-11-30 18:40:00,63.2,59.9,30.27,NNE,23,4.0,13.0,89,0.00,,,0.00,Wunderground v.1.15,2013-11-30 23:40:00,
2013-11-30 18:45:00,63.1,59.8,30.27,NNE,13,3.0,13.0,89,0.00,,,0.00,Wunderground v.1.15,2013-11-30 23:45:00,
2013-11-30 18:55:00,62.9,59.6,30.27,NNE,19,3.0,13.0,89,0.00,,,0.00,Wunderground v.1.15,2013-11-30 23:55:00,
2013-11-30 19:00:00,62.9,59.6,30.27,North,353,4.0,13.0,89,0.00,,,0.00,Wunderground v.1.15,2013-12-01 00:00:00,
2013-11-30 19:10:00,62.8,59.8,30.27,North,358,4.0,4.0,90,0.00,,,0.00,Wunderground v.1.15,2013-12-01 00:10:00,
2013-11-30 19:15:00,62.7,59.7,30.27,NNW,340,3.0,9.0,90,0.00,,,0.00,Wunderground v.1.15,2013-12-01 00:15:00,
2013-11-30 19:25:00,62.5,59.5,30.27,North,358,4.0,13.0,90,0.00,,,0.00,Wunderground v.1.15,2013-12-01 00:25:00,
2013-11-30 19:30:00,62.5,59.5,30.27,ENE,61,4.0,4.0,90,0.00,,,0.00,Wunderground v.1.15,2013-12-01 00:30:00,
2013-11-30 19:40:00,62.4,59.4,30.27,North,353,4.0,4.0,90,0.00,,,0.00,Wunderground v.1.15,2013-12-01 00:40:00,
2013-11-30 19:45:00,62.3,59.3,30.27,North,9,3.0,10.0,90,0.00,,,0.00,Wunderground v.1.15,2013-12-01 00:45:00,
2013-11-30 19:55:00,62.2,59.2,30.27,NE,42,4.0,10.0,90,0.00,,,0.00,Wunderground v.1.15,2013-12-01 00:55:00,
2013-11-30 20:05:00,62.1,59.4,30.27,North,3,4.0,13.0,91,0.00,,,0.00,Wunderground v.1.15,2013-12-01 01:05:00,
2013-11-30 20:15:00,62.0,59.3,30.27,North,7,3.0,13.0,91,0.00,,,0.00,Wunderground v.1.15,2013-12-01 01:15:00,
2013-11-30 20:20:00,61.9,59.2,30.27,North,349,3.0,13.0,91,0.00,,,0.00,Wunderground v.1.15,2013-12-01 01:20:00,
2013-11-30 20:30:00,61.9,59.2,30.27,North,349,4.0,13.0,91,0.00,,,0.00,Wunderground v.1.15,2013-12-01 01:30:00,
2013-11-30 20:35:00,61.9,59.2,30.27,NNW,348,3.0,13.0,91,0.00,,,0.00,Wunderground v.1.15,2013-12-01 01:35:00,
2013-11-30 20:45:00,61.8,59.1,30.27,North,3,3.0,13.0,91,0.00,,,0.00,Wunderground v.1.15,2013-12-01 01:45:00,
2013-11-30 20:50:00,61.9,59.2,30.27,North,353,3.0,13.0,91,0.00,,,0.00,Wunderground v.1.15,2013-12-01 01:50:00,
2013-11-30 21:00:00,61.8,59.1,30.27,NNE,14,3.0,13.0,91,0.00,,,0.00,Wunderground v.1.15,2013-12-01 02:00:00,
2013-11-30 21:05:00,61.8,59.1,30.26,North,3,5.0,13.0,91,0.00,,,0.00,Wunderground v.1.15,2013-12-01 02:05:00,
2013-11-30 21:15:00,61.7,59.0,30.27,North,3,2.0,13.0,91,0.00,,,0.00,Wunderground v.1.15,2013-12-01 02:15:00,
2013-11-30 21:20:00,61.7,59.0,30.26,North,358,3.0,13.0,91,0.00,,,0.00,Wunderground v.1.15,2013-12-01 02:20:00,
2013-11-30 21:30:00,61.7,59.0,30.26,North,3,3.0,13.0,91,0.00,,,0.00,Wunderground v.1.15,2013-12-01 02:30:00,
2013-11-30 21:40:00,61.7,59.0,30.26,North,3,4.0,13.0,91,0.00,,,0.00,Wunderground v.1.15,2013-12-01 02:40:00,
2013-11-30 21:50:00,61.7,59.0,30.26,North,3,3.0,13.0,91,0.00,,,0.00,Wunderground v.1.15,2013-12-01 02:50:00,
2013-11-30 21:55:00,61.6,59.3,30.26,NE,38,3.0,13.0,92,0.00,,,0.00,Wunderground v.1.15,2013-12-01 02:55:00,
2013-11-30 22:05:00,61.5,58.8,30.26,North,3,4.0,13.0,91,0.00,,,0.00,Wunderground v.1.15,2013-12-01 03:05:00,
2013-11-30 22:10:00,61.4,58.7,30.26,North,358,4.0,4.0,91,0.00,,,0.00,Wunderground v.1.15,2013-12-01 03:10:00,
2013-11-30 22:20:00,61.3,58.7,30.26,North,3,3.0,3.0,91,0.00,,,0.00,Wunderground v.1.15,2013-12-01 03:20:00,
2013-11-30 22:25:00,61.2,58.6,30.26,North,358,3.0,5.0,91,0.00,,,0.00,Wunderground v.1.15,2013-12-01 03:25:00,
2013-11-30 22:35:00,61.1,58.8,30.26,NNE,27,4.0,13.0,92,0.00,,,0.00,Wunderground v.1.15,2013-12-01 03:35:00,
2013-11-30 22:45:00,61.0,58.7,30.25,NNE,14,4.0,13.0,92,0.00,,,0.00,Wunderground v.1.15,2013-12-01 03:45:00,
2013-11-30 22:55:00,60.9,58.6,30.25,North,353,3.0,4.0,92,0.00,,,0.00,Wunderground v.1.15,2013-12-01 03:55:00,
2013-11-30 23:05:00,60.8,58.5,30.25,North,7,4.0,5.0,92,0.00,,,0.00,Wunderground v.1.15,2013-12-01 04:05:00,
2013-11-30 23:15:00,60.7,58.4,30.25,North,353,4.0,5.0,92,0.00,,,0.00,Wunderground v.1.15,2013-12-01 04:15:00,
2013-11-30 23:25:00,60.7,58.4,30.25,NNW,329,4.0,13.0,92,0.00,,,0.00,Wunderground v.1.15,2013-12-01 04:25:00,
2013-11-30 23:30:00,60.7,58.4,30.25,North,7,4.0,4.0,92,0.00,,,0.00,Wunderground v.1.15,2013-12-01 04:30:00,
2013-11-30 23:40:00,60.6,58.3,30.25,North,353,3.0,13.0,92,0.00,,,0.00,Wunderground v.1.15,2013-12-01 04:40:00,
2013-11-30 23:45:00,60.4,58.1,30.25,North,353,4.0,13.0,92,0.00,,,0.00,Wunderground v.1.15,2013-12-01 04:45:00,
2013-11-30 23:55:00,60.3,58.0,30.25,North,358,3.0,6.0,92,0.00,,,0.00,Wunderground v.1.15,2013-12-01 04:55:00,